Regional Weather Roundup
Issued by NWS

Home | Current Version | Previous Version | Text Only | Print | Product List | Glossary On
Versions: 1 2 3 4 5 6 7 8 9 10 11 12 13 14 15 16 17 18 19 20 21 22 23 24 25 26 27 28 29 30 31 32 33 34 35 36 37 38 39 40 41 42 43 44 45 46 47 48
000
ASCA42 TJSJ 081310
RWRPR
PUERTO RICO/U.S. VIRGIN ISLANDS HOURLY WEATHER ROUNDUP
NATIONAL WEATHER SERVICE SAN JUAN PR
900 AM AST MON FEB 08 2016

PRZ001-004-081400-
PUERTO RICO

CITY           SKY/WX    TMP DP  RH WIND       PRES   REMARKS
SAN JUAN LMM   MOSUNNY   77  72  83 CALM      30.07R
AGUADILLA      SUNNY     75  66  73 CALM      30.08R
CEIBA          MOSUNNY   79  73  83 SE9       30.09R
$$

PRZ006-007-081400-
U.S. VIRGIN ISLANDS

CITY           SKY/WX    TMP DP  RH WIND       PRES   REMARKS
CHARLOTTE AMA  MOSUNNY   81  72  74 SE9       30.07R
CHRISTIANSTED  MOSUNNY   82  72  69 SE10      30.08R
$$

HOURLY WEATHER ROUNDUP FOR THE NEWS MEDIA

CITY           SKY/WX    TMP DP  RH WIND       PRES   REMARKS
ORLANDO        CLEAR     44  38  79 SW6       30.07R
NEW YORK       CLOUDY    38  27  64 NE22G29   29.79R WCI  27
NEWARK         CLOUDY    38  28  67 NE17      29.79R WCI  28
CHICAGO        LGT SNOW  30  27  88 NW10      29.62R FOG     WCI  21
HARTFORD         N/A    N/A N/A N/A MISG      29.74F
BOSTON         LGT SNOW  28  21  75 N33G40    29.86F WCI  11
DALLAS         PTCLDY    42  19  39 NW12      30.33R
PHILADELPHIA   CLOUDY    39  26  59 N10G25    29.78R WCI  32
LOS ANGELES    CLEAR     55  32  41 CALM      30.10S
WASHINGTON DC  FAIR      27  22  81 CALM      29.81S


USA.gov is the U.S. government's official web portal to all federal, state and local government web resources and services.